Dumas, TX

12:50 PM CDT on July 25, 2017 (GMT -0500)
Moore County

Weather History for KDUX - March, 2013

Change the Weather History Date:

Thursday, March 21, 2013

  Actual Average (KDHT) Record (KDHT)
Temperature  
Mean Temperature 58 °F -  
Max Temperature 77 °F 59 °F 88 °F (1995)
Min Temperature 40 °F 31 °F 10 °F (1989)
Degree Days  
Heating Degree Days 6    
Growing Degree Days 8 (Base 50)    
Moisture  
Dew Point 29 °F    
Average Humidity 41    
Maximum Humidity 72    
Minimum Humidity 9    
Precipitation  
Precipitation 0.00 in - - ()
Sea Level Pressure  
Sea Level Pressure 29.61 in    
Wind  
Wind Speed 14 mph (West)    
Max Wind Speed 26 mph    
Max Gust Speed 72 mph    
Visibility 10 miles    
Events      
Averages and records for this station are not official NWS values.
T = Trace of Precipitation, MM = Missing Value Source: NWS Daily Summary

Daily Weather History Graph

Daily Weather History Graph

Search for Another Location

Airport or City:

Trip Planner

Search our weather history database for the weather conditions in past years. The results will help you decide how hot, cold, wet, or windy it might be!

Date:

Astronomy

Mar. 21, 2013 Rise Set
Actual Time 7:49 AM CDT 8:00 PM CDT
Civil Twilight 7:24 AM CDT 8:26 PM CDT
Nautical Twilight 6:54 AM CDT 8:56 PM CDT
Astronomical Twilight 6:24 AM CDT 9:26 PM CDT
Moon 2:41 PM CDT (3/21) 4:03 AM CDT (3/21)
Length of Visible Light 13h 02m
Length of Day
12h 11m
Waxing Gibbous, 69% of the Moon is Illuminated
Mar 21
Waxing Gibbous
Mar 27
Full
Apr 2
Last Quarter
Apr 10
New
Apr 18
First Quarter

Hourly Weather History & Observations

Time (CDT) Temp. Windchill Dew Point Humidity Pressure Visibility Wind Dir Wind Speed Gust Speed Precip Events Conditions
12:15 AM 50.9 °F - 25.5 °F 37% 29.82 in 10.0 mi SSW 18.4 mph - N/A   Clear
12:35 AM 50.2 °F - 26.1 °F 39% 29.81 in 10.0 mi SSW 17.3 mph - N/A   Clear
1:15 AM 51.1 °F - 26.6 °F 39% 29.79 in 10.0 mi SSW 18.4 mph - N/A   Clear
1:35 AM 50.9 °F - 27.0 °F 40% 29.78 in 10.0 mi SSW 17.3 mph - N/A   Clear
1:55 AM 50.0 °F - 27.1 °F 41% 29.76 in 10.0 mi SSW 15.0 mph - N/A   Clear
2:15 AM 49.8 °F - 27.5 °F 42% 29.76 in 10.0 mi SSW 16.1 mph - N/A   Clear
2:35 AM 49.5 °F - 27.9 °F 43% 29.74 in 10.0 mi SW 17.3 mph - N/A   Clear
2:55 AM 49.5 °F - 28.4 °F 44% 29.73 in 10.0 mi SW 16.1 mph - N/A   Clear
3:15 AM 49.1 °F - 29.3 °F 46% 29.73 in 10.0 mi SW 16.1 mph - N/A   Clear
3:35 AM 50.0 °F - 29.8 °F 46% 29.73 in 10.0 mi SW 16.1 mph - N/A   Clear
3:55 AM 50.0 °F - 30.4 °F 47% 29.71 in 10.0 mi SW 17.3 mph - N/A   Clear
4:15 AM 49.3 °F - 30.7 °F 49% 29.70 in 10.0 mi SW 17.3 mph - N/A   Clear
4:35 AM 48.6 °F - 30.7 °F 50% 29.69 in 10.0 mi SW 15.0 mph - N/A   Clear
4:55 AM 48.4 °F - 31.1 °F 51% 29.67 in 10.0 mi SW 13.8 mph - N/A   Clear
5:15 AM 48.7 °F - 31.5 °F 51% 29.66 in 10.0 mi SW 13.8 mph - N/A   Clear
5:35 AM 47.3 °F - 31.1 °F 53% 29.66 in 10.0 mi SW 12.7 mph - N/A   Clear
5:55 AM 46.4 °F 41.1 °F 31.1 °F 55% 29.65 in 10.0 mi WSW 11.5 mph - N/A   Clear
6:15 AM 44.1 °F 38.6 °F 30.7 °F 59% 29.64 in 10.0 mi WSW 10.4 mph - N/A   Clear
6:35 AM 43.7 °F 39.1 °F 30.9 °F 61% 29.64 in 10.0 mi WSW 8.1 mph - N/A   Clear
6:55 AM 42.8 °F 38.6 °F 30.9 °F 63% 29.64 in 10.0 mi WSW 6.9 mph - N/A   Clear
7:15 AM 43.3 °F 37.7 °F 31.6 °F 63% 29.64 in 10.0 mi WSW 10.4 mph - N/A   Clear
7:35 AM 43.7 °F 38.6 °F 32.0 °F 63% 29.64 in 10.0 mi West 9.2 mph - N/A   Clear
7:55 AM 43.2 °F 39.0 °F 32.0 °F 65% 29.64 in 10.0 mi West 6.9 mph - N/A   Clear
8:15 AM 42.1 °F 37.7 °F 32.0 °F 67% 29.64 in 10.0 mi West 6.9 mph - N/A   Clear
8:35 AM 43.9 °F 42.3 °F 32.0 °F 63% 29.64 in 10.0 mi West 3.5 mph - N/A   Clear
8:55 AM 47.1 °F - 32.9 °F 58% 29.63 in 10.0 mi West 8.1 mph - N/A   Clear
9:15 AM 49.3 °F - 32.5 °F 53% 29.62 in 10.0 mi West 9.2 mph - N/A   Clear
9:35 AM 51.1 °F - 32.0 °F 48% 29.62 in 10.0 mi West 9.2 mph - N/A   Clear
9:55 AM 52.0 °F - 32.0 °F 47% 29.62 in 10.0 mi West 9.2 mph - N/A   Clear
10:15 AM 54.9 °F - 32.0 °F 42% 29.62 in 10.0 mi WNW 10.4 mph - N/A   Clear
10:35 AM 58.6 °F - 31.5 °F 36% 29.62 in 10.0 mi West 8.1 mph - N/A   Clear
10:55 AM 61.9 °F - 28.8 °F 29% 29.63 in 10.0 mi NNW 6.9 mph - N/A   Clear
11:35 AM 63.1 °F - 27.9 °F 26% 29.61 in 10.0 mi North 11.5 mph 17.3 mph N/A   Clear
11:55 AM 64.0 °F - 28.8 °F 26% 29.60 in 10.0 mi North 4.6 mph - N/A   Clear
12:15 PM 64.2 °F - 28.4 °F 26% 29.59 in 10.0 mi NW 4.6 mph - N/A   Clear
12:35 PM 65.3 °F - 28.6 °F 25% 29.58 in 10.0 mi North 4.6 mph - N/A   Clear
12:55 PM 65.8 °F - 28.6 °F 25% 29.56 in 10.0 mi NE 3.5 mph - N/A   Clear
1:15 PM 67.3 °F - 28.2 °F 23% 29.56 in 10.0 mi WNW 3.5 mph - N/A   Clear
1:35 PM 69.3 °F - 27.9 °F 21% 29.56 in 10.0 mi West 10.4 mph - N/A   Clear
2:15 PM 71.8 °F - 28.0 °F 20% 29.54 in 10.0 mi WNW 9.2 mph 26.5 mph N/A   Clear
2:35 PM 71.2 °F - 28.2 °F 20% 29.53 in 10.0 mi SW 9.2 mph 20.7 mph N/A   Clear
2:55 PM 71.6 °F - 27.7 °F 20% 29.51 in 10.0 mi WSW 16.1 mph 19.6 mph N/A   Clear
3:15 PM 72.3 °F - 27.5 °F 19% 29.49 in 10.0 mi SW 12.7 mph - N/A   Clear
3:55 PM 73.4 °F - 27.1 °F 18% 29.47 in 10.0 mi SW 18.4 mph 25.3 mph N/A   Clear
4:15 PM 72.9 °F - 27.3 °F 18% 29.45 in 10.0 mi South 13.8 mph - N/A   Clear
4:35 PM 75.9 °F - 25.9 °F 16% 29.45 in 10.0 mi SW 19.6 mph 25.3 mph N/A   Clear
4:55 PM 74.1 °F - 25.9 °F 17% 29.44 in 10.0 mi SW 15.0 mph 23.0 mph N/A   Clear
5:15 PM 76.8 °F - 13.5 °F 9% 29.44 in 10.0 mi West 26.5 mph 32.2 mph N/A   Scattered Clouds
5:35 PM 66.7 °F - 29.1 °F 24% 29.45 in 2.5 mi NNE 23.0 mph 72.5 mph N/A   Haze
5:55 PM 64.9 °F - 29.8 °F 27% 29.47 in 10.0 mi NE 17.3 mph 29.9 mph N/A   Mostly Cloudy
6:15 PM 64.4 °F - 30.0 °F 28% 29.48 in 10.0 mi NNE 23.0 mph 27.6 mph N/A   Scattered Clouds
6:35 PM 63.5 °F - 29.7 °F 28% 29.49 in 10.0 mi NNE 20.7 mph 26.5 mph N/A   Clear
6:55 PM 62.4 °F - 29.3 °F 29% 29.49 in 10.0 mi NE 15.0 mph 27.6 mph N/A   Clear
7:15 PM 61.7 °F - 28.2 °F 28% 29.51 in 10.0 mi NE 16.1 mph 23.0 mph N/A   Clear
7:35 PM 59.7 °F - 30.9 °F 34% 29.52 in 10.0 mi NNE 15.0 mph - N/A   Clear
7:55 PM 57.6 °F - 30.7 °F 36% 29.53 in 10.0 mi NE 13.8 mph 20.7 mph N/A   Clear
8:15 PM 55.8 °F - 30.6 °F 38% 29.53 in 10.0 mi NE 11.5 mph - N/A   Clear
8:35 PM 54.5 °F - 30.2 °F 39% 29.54 in 10.0 mi NE 12.7 mph - N/A   Clear
8:55 PM 53.6 °F - 30.2 °F 41% 29.55 in 10.0 mi NE 9.2 mph - N/A   Clear
9:15 PM 52.9 °F - 30.2 °F 42% 29.57 in 10.0 mi NE 10.4 mph - N/A   Clear
9:35 PM 51.8 °F - 30.2 °F 44% 29.58 in 10.0 mi NNE 8.1 mph - N/A   Clear
9:55 PM 46.9 °F - 30.6 °F 53% 29.60 in 10.0 mi North 6.9 mph - N/A   Clear
10:15 PM 44.2 °F 40.3 °F 29.8 °F 57% 29.62 in 10.0 mi NNE 6.9 mph - N/A   Clear
10:35 PM 42.3 °F 37.9 °F 30.2 °F 62% 29.64 in 10.0 mi North 6.9 mph - N/A   Clear
10:55 PM 41.9 °F 35.4 °F 30.9 °F 65% 29.66 in 10.0 mi North 11.5 mph - N/A   Clear
11:15 PM 43.0 °F 37.2 °F 32.0 °F 65% 29.67 in 10.0 mi NNE 10.4 mph - N/A   Clear
11:35 PM 42.3 °F 35.1 °F 32.4 °F 68% 29.69 in 10.0 mi North 13.8 mph - N/A   Clear
11:55 PM 40.5 °F 33.2 °F 32.0 °F 72% 29.71 in 10.0 mi North 12.7 mph - N/A   Clear